#timestamp,LO_Frequency,Hit,StdDev 
1595160015.5,286047001.1,N
1595160035.3,286046999.9,N
1595160055.2,286047000.2,N
1595160075.0,286047000.5,N
1595160075.9,286047000.5,N
1595160095.8,286047002.3,N
1595160115.6,286047002.5,N
1595160135.4,286046999.7,N
1595160155.3,286047001.1,N
1595160175.1,286047000.7,N
1595160195.8,286047000.7,N
1595160215.7,286046999.7,N
1595160235.5,286047000.4,N
1595160255.4,286047001.0,N
1595160275.2,286047000.3,N
1595160295.0,286047001.0,N
1595160295.9,286047001.0,N
1595160315.8,286047000.5,N
1595160335.6,286047000.2,N
1595160355.5,286046999.8,N
1595160375.3,286047000.2,N
1595160395.1,286047002.3,N
1595160415.9,286047002.2,N
1595160435.7,286047001.8,N
1595160455.5,286047001.6,N
1595160475.4,286047002.0,N
1595160495.2,286047001.9,N
1595160515.1,286047004.1,Y
1595160516.0,286047004.1,P
1595160535.8,286047001.7,N
1595160555.6,286047002.3,N
1595160575.5,286047000.1,N
1595160595.3,286047000.5,N
1595160615.2,286047000.3,N
1595160635.9,286047000.8,N
1595160655.7,286046998.7,N
1595160675.6,286046998.8,N
1595160695.4,286046998.2,N
1595160715.3,286047000.7,N
1595160735.1,286046998.2,N
1595160736.0,286046998.2,N
1595160755.9,286046998.3,N
1595160775.8,286046999.1,N
1595160795.6,286046999.2,N
1595160815.4,286046997.0,N
1595160835.3,286046997.1,N
1595160855.1,286046997.1,N
1595160875.8,286046997.2,N
1595160895.7,286046997.1,N
1595160915.5,286046996.8,N
1595160935.4,286046997.5,N
1595160955.2,286046995.8,N
1595160975.0,286046994.2,N
1595160975.9,286046994.2,N
1595160995.8,286046991.7,Y
1595161015.6,286046993.6,P
1595161035.5,286046996.4,N
1595161055.3,286046995.7,N
1595161075.1,286047002.5,N
1595161095.9,286047004.3,N
1595161115.7,286047002.0,N
1595161135.6,286047002.8,N
1595161155.4,286047000.9,N
1595161175.2,286046998.3,N
1595161195.1,286046998.1,N
1595161196.0,286046998.1,N
1595161215.8,286046998.7,N
1595161235.7,286047001.0,N
1595161255.5,286046998.7,N
1595161275.3,286046998.4,N
1595161295.2,286046996.5,N
1595161315.0,286046997.0,N
1595161315.9,286046997.0,N
1595161335.7,286046997.7,N
1595161355.6,286046996.2,N
1595161375.4,286046996.2,N
1595161395.3,286046995.1,N
1595161415.1,286046996.0,N
1595161435.8,286046995.2,N
1595161455.7,286046996.1,N
1595161475.5,286046993.9,N
1595161495.4,286046994.2,N
1595161515.2,286046993.6,N
1595161535.0,286046993.5,N
1595161535.9,286046993.5,N
1595161555.8,286046994.1,N
1595161575.6,286046996.2,N
1595161595.4,286046995.3,N
1595161615.3,286046997.3,N
1595161635.1,286046999.6,N
1595161655.9,286046997.7,N
1595161675.7,286046997.6,N
1595161695.5,286046995.2,N
1595161715.4,286046997.7,N
1595161735.2,286046997.1,N
1595161755.1,286046997.1,N
1595161756.0,286046997.1,N
1595161775.8,286046999.5,N
1595161795.6,286046999.2,N
1595161815.5,286046997.2,N
1595161835.3,286046997.1,N
1595161855.2,286046997.5,N
1595161875.9,286046995.8,N
1595161895.7,286046995.6,N
1595161915.6,286046995.5,N
1595161935.4,286046995.9,N
1595161955.2,286046996.2,N
1595161975.1,286046996.3,N
1595161976.0,286046996.3,N
1595161995.8,286046995.9,N
1595162015.7,286046995.9,N
1595162035.5,286046995.6,N
1595162055.4,286046996.2,N
1595162075.2,286046995.2,Y
1595162095.0,286046999.9,P
1595162095.9,286046999.9,N
1595162115.8,286046998.1,N
1595162135.6,286046999.2,N
1595162155.4,286046998.7,N
1595162175.3,286046999.0,N
1595162195.1,286046998.1,N
1595162215.9,286047000.8,N
1595162235.7,286047000.4,N
1595162255.5,286047001.0,N
1595162275.4,286046998.6,N
1595162295.2,286046999.3,N
1595162315.1,286046996.5,N
1595162316.0,286046996.5,N
1595162335.8,286046998.4,N
1595162355.6,286046999.3,N
1595162375.5,286046999.1,N
1595162395.3,286046999.3,N
1595162415.2,286046999.4,N
1595162435.9,286046997.0,N
1595162455.7,286046996.7,N
1595162475.6,286046997.1,N
1595162495.4,286046999.2,N
1595162515.2,286046996.9,N
1595162535.1,286046997.2,N
1595162536.0,286046997.2,N
1595162555.8,286046997.4,N
1595162575.7,286046995.4,Y
1595162595.5,286046996.8,P
1595162615.3,286046999.3,N
1595162635.2,286046996.6,P
1595162655.0,286046998.9,N
1595162655.9,286046998.9,N
1595162675.8,286046998.4,N
1595162695.6,286046999.3,N
1595162715.4,286046998.3,N
1595162735.3,286047000.8,N
1595162755.1,286047001.4,N
1595162775.9,286047004.0,N
1595162795.7,286047002.2,N
1595162815.5,286047001.9,N
1595162835.4,286046999.9,N
1595162855.2,286047000.9,N
1595162875.0,286047001.0,N
1595162875.9,286047001.0,N
1595162895.8,286047000.7,N
1595162915.6,286047000.1,N
1595162935.5,286047002.2,N
1595162955.3,286046999.8,N
1595162975.1,286046999.7,N
1595162995.9,286047002.6,N
1595163015.7,286047000.3,N
1595163035.6,286047000.5,N
1595163055.4,286047000.6,N
1595163075.2,286047000.2,N
1595163095.1,286047000.5,N
1595163096.0,286047000.5,N
1595163115.8,286047000.7,N
1595163135.7,286047000.9,N
1595163155.5,286047000.7,N
1595163175.3,286047000.7,N
1595163195.2,286047000.0,N
1595163215.0,286046999.9,N
1595163215.9,286046999.9,N
1595163235.8,286047002.8,N
1595163255.6,286047002.2,N
1595163275.4,286046999.7,N
1595163295.3,286047001.7,N
1595163315.1,286047004.4,Y
1595163335.8,286047002.8,P
1595163355.7,286047002.1,N
1595163375.5,286047001.7,N
1595163395.4,286047000.1,N
1595163415.2,286047002.7,N
1595163435.0,286047002.3,N
1595163435.9,286047002.3,N
1595163455.8,286047000.2,N
1595163475.6,286047001.4,N
1595163495.5,286047001.6,N
1595163515.3,286047001.4,N
1595163535.1,286047002.3,N
1595163555.9,286047004.0,Y
1595163575.7,286046998.1,P
1595163595.6,286046998.8,N
